STARLINK-35436, 65932

Orbit data source: Space-Track

STARLINK-35436, 65932 is a payload satellite owned by SpaceX/Seattle (US) in LEO that was launched on Wed, 08 Oct 2025 UTC via an FALCON 9 launch vehicle from the Air Force Western Test Range (AFWTR). Payload-class satellites include a variety of spacecraft equipped with specific instruments for various scientific and technological missions. These include communications satellites like Starlink; space stations such as the ISS; scientific satellites like the Hubble; Earth observation satellites from companies like Planet Labs, Umbra, and HawkEye 360; GPS; miniature CubeSats for education and research; and military/defense satellites.

Loading next visibility...
Identifier
65932, 2025-225Y
Orbit
LEO
Country
Flag of USUS
Related business
Manufacturer
SpaceX/Seattle
Mission
Operational Commercial Communications
Bus & Motor
STARLINK V2MO, Unknown motor
Mass
575 kg wet, ~530 kg dry
Launch date (UTC)
2025-10-08 (8 months ago)
Launch vehicle
FALCON 9
Launch site
Air Force Western Test Range (AFWTR)
Object type
Payload
Rocket body
Debris
Shape & HBR
Box + 2 Pan, 17.7 m
Radar Cross Section
36.964 m², Large (>1 m²)

Expand to show TLE details & history
Last TLE update: 13 hours ago

TLE from 13 hours ago
0 STARLINK-35436
1 65932U 25225Y   26151.21039612  .00026166  00000-0  89238-3 0  9994
2 65932  53.1567 142.2886 0001236 101.1346 258.9793 15.30203170 37042
Epoch: 2026-05-31T05:02Z
TLE epoch observation values (Epoch: 2026-05-31T05:02:58.224Z)
Latitude
-0.00009°
Longitude
177.83059°
Altitude
476.267 km
Speed
7.629 km/s
True Right ascension
09h 29m 09s
True Declination
0° 00' 00"
Sunlit
Object was in daylight at epoch
Visualization orbit readout
Latitude
Unknown
Longitude
Unknown
Altitude
Unknown
Speed
Unknown
Apparent Right ascension
Unknown
Apparent Declination
Unknown
Sunlit
N/A
Visualization observer readout
Local Sidereal Time
03:17:27
Azimuth
Unknown
Elevation
Unknown
Doppler factor
Unknown
Orbital elements
Apogee altitude
476.31 km
Perigee altitude
474.615 km
Semi-major axis
6,853.6 km
Eccentricity
0.00012
Inclination
53.1567°
RAAN
142.2886°
Arg. of periapsis
101.1346°
True anomaly
258.9654°
Mean anomaly
258.9793°
Eccentric anomaly
258.97235°
Mean motion
3.8253 °/min
Orbital period
94.11 mins
BSTAR
0.00089238
Loading maneuver chart data...
Computing Atmospheric mass density...
Loading historical data...
Loading historical data...
Loading historical data...
Loading historical data...
Loading historical data...
Loading historical data...
Loading historical data...

Documentation

Showing up to 5 results
|